Pierre, SD

1:33 AM CDT on June 27, 2017 (GMT -0500)
Pierre Regional

Weather History for KPIR - March, 2012

Change the Weather History Date:

Sunday, March 4, 2012

  Actual Average Record
Temperature  
Mean Temperature 32 °F 30 °F  
Max Temperature 39 °F 40 °F 75 °F (2000)
Min Temperature 24 °F 19 °F -18 °F (1960)
Degree Days  
Heating Degree Days 33 35  
Month to date heating degree days 153 143  
Since 1 July heating degree days 5059 5641  
Cooling Degree Days 0 0  
Month to date cooling degree days 0 0  
Year to date cooling degree days 0 0  
Moisture  
Dew Point 28 °F    
Average Humidity 82    
Maximum Humidity 100    
Minimum Humidity 64    
Precipitation  
Precipitation 0.05 in 0.03 in 0.60 in (1966)
Month to date precipitation 0.01 0.12  
Year to date precipitation 1.80 1.13  
Snow  
Snow 0.00 in 0.30 in 5.80 in (1966)
Month to date snowfall T 1.0  
Since 1 July snowfall 24.5 22.8  
Snow Depth 1.00 in    
Sea Level Pressure  
Sea Level Pressure 29.92 in    
Wind  
Wind Speed 12 mph (West)    
Max Wind Speed 36 mph    
Max Gust Speed 44 mph    
Visibility 8 miles    
Events Rain , Snow    
T = Trace of Precipitation, MM = Missing Value Source: NWS Daily Summary

Daily Weather History Graph

Daily Weather History Graph

Search for Another Location

Airport or City:

Trip Planner

Search our weather history database for the weather conditions in past years. The results will help you decide how hot, cold, wet, or windy it might be!

Date:

Astronomy

Mar. 04, 2012 Rise Set
Actual Time 7:12 AM CST 6:33 PM CST
Civil Twilight 6:43 AM CST 7:02 PM CST
Nautical Twilight 6:09 AM CST 7:36 PM CST
Astronomical Twilight 5:35 AM CST 8:10 PM CST
Moon 2:40 PM CST (3/4) 4:41 AM CST (3/4)
Length of Visible Light 12h 19m
Length of Day
11h 21m
Waxing Gibbous, 84% of the Moon is Illuminated
Mar 4
Waxing Gibbous
Mar 8
Full
Mar 14
Last Quarter
Mar 22
New
Mar 30
First Quarter

Hourly Weather History & Observations

Time (CST) Temp. Windchill Dew Point Humidity Pressure Visibility Wind Dir Wind Speed Gust Speed Precip Events Conditions
12:01 AM 26.6 °F 20.0 °F 24.8 °F 93% 29.79 in 2.0 mi ESE 5.8 mph - 0.00 in Snow Light Snow
12:09 AM 26.6 °F 20.0 °F 24.8 °F 93% 29.79 in 2.5 mi ESE 5.8 mph - 0.00 in Snow Light Snow
12:13 AM 26.6 °F 20.0 °F 24.8 °F 93% 29.78 in 3.0 mi ESE 5.8 mph - 0.00 in Snow Light Snow
12:48 AM 26.6 °F 20.0 °F 26.6 °F 100% 29.78 in 2.0 mi SE 5.8 mph - 0.00 in Snow Light Snow
12:53 AM 27.0 °F 20.5 °F 26.1 °F 96% 29.84 in 1.8 mi SE 5.8 mph - 0.00 in Snow Light Snow
1:23 AM 28.4 °F 21.2 °F 26.6 °F 93% 29.77 in 2.5 mi SE 6.9 mph - 0.00 in Snow Light Snow
1:32 AM 28.4 °F 21.2 °F 26.6 °F 93% 29.77 in 2.0 mi SE 6.9 mph - 0.00 in Snow Light Snow
1:53 AM 28.0 °F 20.8 °F 27.0 °F 96% 29.82 in 4.0 mi SSE 6.9 mph - 0.01 in Snow Light Snow
2:17 AM 28.4 °F 22.2 °F 26.6 °F 93% 29.75 in 7.0 mi SSE 5.8 mph - 0.00 in   Overcast
2:43 AM 28.4 °F 24.6 °F 28.4 °F 100% 29.74 in 8.0 mi South 3.5 mph - 0.00 in   Overcast
2:53 AM 28.9 °F 23.9 °F 27.0 °F 92% 29.79 in 6.0 mi South 4.6 mph - 0.00 in Snow Light Snow
3:23 AM 28.4 °F - 26.6 °F 93% 29.73 in 8.0 mi Calm Calm - 0.00 in   Overcast
3:53 AM 30.0 °F 25.2 °F 28.0 °F 92% 29.81 in 7.0 mi WNW 4.6 mph - 0.00 in   Overcast
4:01 AM 32.0 °F 26.4 °F 30.2 °F 93% 29.75 in 5.0 mi West 5.8 mph - 0.01 in   Overcast
4:08 AM 32.0 °F 26.4 °F 30.2 °F 93% 29.74 in 5.0 mi West 5.8 mph - 0.02 in Rain Light Freezing Rain
4:53 AM 33.1 °F 24.9 °F 30.9 °F 92% 29.82 in 10.0 mi West 10.4 mph - 0.03 in Rain Light Rain
5:16 AM 33.8 °F 27.7 °F 30.2 °F 87% 29.75 in 10.0 mi West 6.9 mph - 0.01 in   Overcast
5:53 AM 32.0 °F 24.8 °F 30.9 °F 96% 29.79 in 9.0 mi WSW 8.1 mph - 0.01 in   Overcast
6:53 AM 34.0 °F 24.6 °F 32.0 °F 92% 29.83 in 10.0 mi NW 13.8 mph - N/A   Overcast
7:53 AM 36.0 °F 26.0 °F 32.0 °F 86% 29.87 in 10.0 mi WNW 17.3 mph - N/A   Overcast
8:53 AM 36.0 °F 25.0 °F 32.0 °F 86% 29.90 in 10.0 mi WNW 20.7 mph - N/A   Overcast
9:53 AM 37.0 °F 26.7 °F 30.9 °F 79% 29.95 in 10.0 mi WNW 19.6 mph - N/A   Overcast
10:18 AM 37.4 °F 26.9 °F 30.2 °F 75% 29.92 in 10.0 mi WNW 20.7 mph - N/A   Overcast
10:51 AM 37.4 °F 26.1 °F 30.2 °F 75% 29.94 in 10.0 mi NW 24.2 mph 32.2 mph N/A   Overcast
10:53 AM 37.9 °F 26.3 °F 30.9 °F 76% 29.99 in 10.0 mi NW 26.5 mph 34.5 mph N/A   Overcast
11:53 AM 37.9 °F 26.1 °F 28.9 °F 70% 30.03 in 10.0 mi NNW 27.6 mph 35.7 mph N/A   Partly Cloudy
12:53 PM 37.0 °F 25.1 °F 28.0 °F 70% 30.07 in 10.0 mi NNW 26.5 mph 33.4 mph N/A   Scattered Clouds
1:53 PM 37.9 °F 26.1 °F 27.0 °F 65% 30.09 in 10.0 mi NNW 27.6 mph 36.8 mph N/A   Clear
2:53 PM 37.9 °F 29.2 °F 28.0 °F 68% 30.10 in 10.0 mi NNW 15.0 mph 24.2 mph N/A   Scattered Clouds
3:53 PM 37.0 °F 28.5 °F 28.0 °F 70% 30.12 in 10.0 mi NNW 13.8 mph - N/A   Partly Cloudy
4:53 PM 37.9 °F 30.9 °F 28.0 °F 68% 30.12 in 10.0 mi NNW 10.4 mph - N/A   Mostly Cloudy
5:53 PM 37.0 °F 30.4 °F 28.0 °F 70% 30.13 in 10.0 mi NNW 9.2 mph - N/A   Partly Cloudy
6:53 PM 32.0 °F 28.7 °F 27.0 °F 82% 30.14 in 10.0 mi North 3.5 mph - N/A   Clear
7:53 PM 28.9 °F 22.8 °F 26.1 °F 89% 30.14 in 10.0 mi ESE 5.8 mph - N/A   Clear
8:53 PM 28.0 °F 21.7 °F 25.0 °F 88% 30.15 in 10.0 mi South 5.8 mph - N/A   Clear
9:53 PM 26.1 °F 19.4 °F 23.0 °F 88% 30.15 in 10.0 mi SSE 5.8 mph - N/A   Clear
10:53 PM 27.0 °F 21.6 °F 24.1 °F 89% 30.13 in 10.0 mi SSE 4.6 mph - N/A   Clear
11:53 PM 24.1 °F - 21.9 °F 91% 30.12 in 10.0 mi Calm Calm - N/A   Clear